Terminal Aerodrome Forecast
Issued by NWS Lake Charles, LA

Home | Current Version | Previous Version | Text Only | Print | Product List | Glossary On
Versions: 1 2 3 4 5 6 7 8 9 10 11 12 13 14 15 16 17 18 19
717
FTUS44 KLCH 010913 AAA
TAFLFT
TAF AMD
KLFT 010913Z 0109/0206 16005KT P6SM VCTS BKN015CB OVC030
      TEMPO 0109/0111 VRB10G25KT 1SM +TSRAGS OVC015CB
     FM011400 15007KT 5SM -SHRA SCT012 OVC030
     FM011700 17010KT 5SM -SHRA SCT020 BKN035
     FM020100 14006KT P6SM VCSH BKN015=

USA.gov is the U.S. government's official web portal to all federal, state and local government web resources and services.